www.pogodaiklimat.ru

Погода и климат >> Архив погоды >> Россия >> Костромская область >> Кострома


АРХИВ ПОГОДЫ в Костроме

Время (UTC), дата Ветер
(напр.,м/с)
 
Видим.   Явления Облачность Т
(С)
Тd
(С)
f
(%)
Тe
(С)
Тes
(С)
Комфортность P
(гПа)
Po
(гПа)
Тmin
(С)
Tmax
(С)
R
(мм)
R24
(мм)
S
(см)
00 14.09 ЮВ 3 50 км 9/0
[Ac As]
+12.0 +9.2 83 +10 +10 тепло 1007.2 992.1
03 14.09 Ю 4
{11}
30 км слаб. дождь 10/4 300 м
[Sc diur, vesp Ac As]
+12.5 +10.9 90 +10 +10 тепло 1003.9 988.9 +11.3
06 14.09 ЮЗ 5-11
{13}
30 км слаб. дождь 10/10 600 м
[Cb calv]
+12.9 +9.0 77 +11 +11 тепло 1003.8 988.9
09 14.09 ЮЗ 5-11
{12}
30 км в посл. час ливневой дождь 8/4 600 м
[Cb calv Ac cast]
+12.0 +9.7 86 +10 +11 по сезону 1007.7 992.7
12 14.09 ЮЗ 4
{13}
30 км {ливн. осадки} 5/5 600 м
[Cb calv]
+15.0 +5.3 52 +14 +15 по сезону 1009.6 994.6
15 14.09 ЮЗ 4
{11}
30 км 3/3 600 м
[Cb cap]
+12.6 +4.9 59 +11 +11 по сезону 1010.6 995.5 +15.1 0.5
18 14.09 ЮЗ 2 50 км 5/5 600 м
[Cb cap]
+9.6 +5.9 78 +8 +8 по сезону 1011.8 996.5
21 14.09 Ю 3 50 км 5/3 600 м
[Cu med, cong Ac As]
+7.9 +5.7 86 +5 +5 по сезону 1011.7 996.3
00 15.09 ЮЗ 3 50 км 5/3 600 м
[Cu med, cong Ac As]
+6.0 +5.0 93 +3 +3 прохладно 1011.7 996.2
03 15.09 ЮЗ 3 30 км 10/10 300 м
[Frnb]
+5.8 +5.0 95 +2 +2 прохладно 1012.1 996.6 +5.3
06 15.09 ЮЗ 3 30 км 10/10 300 м
[Sc diur, vesp]
+7.3 +5.1 86 +4 +4 прохладно 1012.4 996.9
09 15.09 ЮЗ 4 30 км 9/8 600 м
[Cb calv Ac trans]
+10.1 +5.3 72 +8 +8 по сезону 1011.9 996.7
12 15.09 ЮЗ 3 30 км 8/8 600 м
[Cb calv]
+11.0 +4.5 64 +9 +10 прохладно 1010.5 995.3
15 15.09 ЮЗ 4
{10}
30 км 10/10 600 м
[Cb calv Ac und]
+8.3 +3.8 73 +5 +5 холодно 1008.8 993.5 +12.0
18 15.09 Ю 3 50 км 10/8 600 м
[Cb calv Ac und]
+7.2 +4.5 83 +4 +4 прохладно 1005.9 990.5
21 15.09 Ю 5 50 км слаб. ливневой дождь 10/10 600 м
[Cb calv Ac As]
+6.8 +5.8 93 +3 +3 прохладно 1001.3 986.1
00 16.09 ЮВ 4
{10}
50 км {ливн. осадки} 10/3 600 м
[Cb calv Ac und]
+7.4 +6.6 95 +4 +4 по сезону 996.8 981.7
03 16.09 ЮВ 5 30 км слаб. дождь 10/8 300 м
[Sc diur, vesp Ac As]
+8.4 +7.6 95 +5 +5 по сезону 994.1 979.0 +6.7 4
06 16.09 ЮВ 4 30 км {ливн. осадки, дождь} 10/3 600 м
[Cu hum Ac As]
+10.1 +8.6 90 +7 +8 по сезону 993.2 978.2
09 16.09 Ю 4 30 км 10/6 300 м
[Frnb Ac As]
+12.2 +7.7 74 +10 +11 по сезону 992.2 977.4
12 16.09 ЮВ 5
{10}
30 км слаб. дождь 9/5 600 м
[Cu hum Ac As Ci fib]
+12.9 +8.2 73 +11 +11 по сезону 991.9 977.1
15 16.09 В 2
{10}
30 км слаб. дождь 6/4 600 м
[Sc diur, vesp Ac As]
+11.0 +8.8 86 +10 +10 по сезону 991.9 977.1 +13.4
18 16.09 В 4 50 км 3/3 600 м
[Cu hum Ac As]
+9.2 +7.3 88 +6 +6 по сезону 992.4 977.4
21 16.09 ЮВ 4 50 км 10/3 600 м
[Cu hum Ac As]
+9.7 +7.6 87 +7 +7 по сезону 991.4 976.4
00 17.09 ЮВ 5
{10}
50 км 8/0
[Ac As]
+9.4 +7.2 86 +6 +6 по сезону 990.6 975.6
03 17.09 ЮВ 4
{11}
30 км слаб. дождь 10/3 600 м
[Cu hum Ac As]
+8.5 +7.1 91 +5 +5 по сезону 990.4 975.4 +8.4
06 17.09 ЮВ 4
{11}
30 км в посл. час ливневой дождь 10/8 600 м
[Cb cap Ac As]
+9.4 +7.0 85 +7 +7 по сезону 990.9 975.9 +8.4
09 17.09 ЮЗ 3
{10}
30 км {ливн. осадки} 9/3 600 м
[Cb cap Ac cast]
+11.3 +6.2 71 +10 +11 по сезону 991.8 977.0
12 17.09 ЮЗ 4 30 км {ливн. осадки} 9/3 600 м
[Cb cap Ac lent Cc]
+12.7 +4.3 57 +11 +12 по сезону 992.6 977.7
15 17.09 ЮЗ 1 30 км в посл. час ливневой дождь 10/8 600 м
[Cb cap Ac As Ci fib]
+8.3 +6.5 88 +7 +7 прохладно 993.9 978.8 +12.8 0.5
18 17.09 ЮЗ 3 50 км слаб. дождь 10/8 600 м
[Cb cap Ac As Ci sp]
+8.8 +5.7 81 +6 +6 по сезону 994.6 979.5
21 17.09 Ю 3 50 км слаб. дождь 10/3 600 м
[Sc diur, vesp As op Cs]
+7.1 +5.9 92 +4 +4 прохладно 994.7 979.6
00 18.09 Ю 3 50 км {дождь} 8/0
[As op Ci fib]
+6.1 +5.3 95 +3 +3 прохладно 995.1 979.9
03 18.09 Ю 3 30 км слаб. дождь 10/9 300 м
[Frnb As op]
+6.1 +5.4 95 +3 +3 прохладно 995.8 980.6 +5.9 0.5
06 18.09 ЮЗ 3 30 км слаб. дождь 10/10 300 м
[Frnb]
+7.1 +6.2 94 +4 +4 прохладно 996.5 981.3
09 18.09 ЮЗ 3 30 км {дождь} 10/9 300 м
[Frnb Ac As]
+8.4 +6.2 86 +6 +6 прохладно 997.2 982.1
12 18.09 ЮЗ 2 30 км 8/4 600 м
[Cb cap Ac As]
+10.9 +5.2 68 +10 +11 по сезону 996.9 982.0
15 18.09 ЮЗ 1 30 км 6/3 600 м
[Cu hum Ac As]
+8.6 +6.1 84 +8 +8 по сезону 997.6 982.5 +11.1 0.5
18 18.09 З 2 50 км 10/4 600 м
[Cb cap Ac As]
+7.4 +6.4 93 +5 +5 прохладно 998.0 982.8
21 18.09 З 1 50 км 10/4 600 м
[Cu med, cong Ac As]
+6.7 +6.1 96 +6 +6 по сезону 998.0 982.8
00 19.09 СЗ 2 50 км 10/3 600 м
[Cu hum Ac As]
+7.0 +6.4 96 +5 +5 по сезону 999.0 983.8
03 19.09 С 4 30 км 10/10 300 м
[Frnb]
+6.5 +5.6 94 +3 +3 прохладно 1000.8 985.5 +5.3
06 19.09 В 2 30 км слаб. дождь 10/8 300 м
[Sc diur, vesp Ac As]
+6.9 +5.8 93 +5 +5 по сезону 1003.1 987.8
09 19.09 В 4 30 км {дождь} 9/8 600 м
[Cb calv Ac As]
+8.6 +4.0 73 +6 +6 прохладно 1005.7 990.5
12 19.09 СЗ 3 30 км {дождь} 10/8 600 м
[Cb calv Ac und]
+8.3 +3.4 71 +6 +6 холодно 1008.0 992.7
15 19.09 С 1 30 км 9/8 600 м
[Cb calv Ac As]
+7.3 +3.7 78 +7 +7 прохладно 1009.7 994.3 +9.4 0.5
18 19.09 ЮЗ 1 50 км 10/8 600 м
[Cb calv Ac As]
+4.9 +3.2 89 +4 +4 прохладно 1011.3 995.7
21 19.09 штиль 0 50 км 6/4 600 м
[Cu hum Ac trans Ci fib]
+1.0 +0.4 96 -0 -0 холодно 1012.2 996.4
00 20.09 Ю 1 50 км 3/3 600 м
[Cu hum]
-0.9 -1.1 99 -3 -3 очень
холодно
1012.8 996.9
03 20.09 штиль 0 30 км 6/1 600 м
[Cu hum Ac trans Ci fib]
-1.8 -1.9 99 -3 -3 очень
холодно
1012.7 996.8 -2.0
06 20.09 СЗ 1 30 км {туман} 10/1 600 м
[Cu med, cong Ci fib]
+4.2 +3.8 97 +3 +5 прохладно 1012.9 997.3
09 20.09 С 1 30 км 10/3 600 м
[Cb calv Ci fib]
+7.9 -0.7 55 +8 +12 по сезону 1012.7 997.3
12 20.09 В 1 30 км 10/1 600 м
[Cu med, cong Ci fib]
+9.1 -3.0 42 +9 +12 по сезону 1012.1 996.8
15 20.09 Ю 1 30 км 10/3 600 м
[Cb calv Ci fib]
+5.9 +1.6 74 +5 +5 прохладно 1012.0 996.5 +9.5
18 20.09 Ю 2 50 км 10/1 600 м
[Cb calv Ac lent]
+3.6 +1.9 89 +1 +1 холодно 1012.4 996.8

 

Местоположение метеостанции Кострома (Костромская область, Россия): широта 57.73 долгота 40.78 высота над уровнем моря 126 м.

В архиве по умолчанию представлена погода в Костроме за последнюю неделю. Архивные данные за месяц целиком и за предыдущие месяцы, начиная с января 2011 года, Вы можете получить, выбрав интересующий диапазон дат из раскрывающегося списка и нажав кнопку "Ввод!".


*Определитесь, кто Вы:
робот инопланетянин человек

Внимание! Время в таблицах - всемирное. Для получения местного времени необходимо прибавить поправку, которая равна 3 ч.

Смотрите также архив погоды в соседних городах и на ближайших метеорологических станциях:

Погода в Приволжске (Ивановская область, Россия) (49 км)
Погода в Плесе (Ивановская область, Россия) (53 км)
Погода в Ярославле (Ярославская область, Россия) (53 км)
Погода в Ярославле-Музее (Ярославская область, Россия) (55 км)
Погода в Данилове (Ярославская область, Россия) (63 км)
Погода в Гаврилов-Яме (Ярославская область, Россия) (73 км)
Погода в Тутаеве (Ярославская область, Россия) (76 км)
Погода в Иванове (Ивановская область, Россия) (88 км)
Погода в Вичуге (Ивановская область, Россия) (89 км)
Погода в Кинешме (Ивановская область, Россия) (90 км)

Пояснения к столбцам:

Ветер - указаны скорость ветра в м/с - средняя за 10 мин, порывы в срок и между сроками (в фигурных скобках) и направление, откуда дует ветер: С - северный, СВ - северо-восточный, В - восточный, ЮВ - юго-восточный, Ю - южный, ЮЗ - юго-западный, З - западный, СЗ - северо-западный.
Видимость - горизонтальная дальность видимости в метрах или километрах. При видимости от 1 до 10 км при отсутствии осадков обычно наблюдается дымка, при ухудшении видимости до 1 км и менее - туман. В сухую погоду видимость может ухудшаться дымом, пылью или мглою.
Явления - указаны атмосферные явления, наблюдавшиеся в срок или в последний час перед сроком; фигурными скобками обозначены явления, наблюдавшиеся между сроками (за 1-3 часа до срока); квадратными скобками обозначены град или гололедные отложения с указанием их диаметра в мм.
Облачность - указаны через наклонную черту общая и нижняя облачность в баллах и высота нижней границы облаков в метрах; квадратными скобками обозначены формы облаков: Ci - перистые, Cs - перисто-слоистые, Cc - перисто-кучевые, Ac - высококучевые, As - высокослоистые, Sc - слоисто-кучевые, Ns - слоисто-дождевые, Cu - кучевые, Cb - кучево-дождевые. Подробнее классификацию облаков см. в Атласе облаков (PDF).
T - Температура воздуха - температура, измеренная на высоте 2 м над землей.
Td - Температура точки росы - температура, при понижении до которой содержащийся в воздухе водяной пар достигнет насыщения.
f - Относительная влажность воздуха - влажноcть воздуха, измеренная на высоте 2 м над землей.
Te - Эффективная температура - температура, которую ощущает одетый по сезону человек в тени. Характеристика душности погоды. При расчете учитывается влияние влажности воздуха и скорости ветра на теплоощущения человека.
Tes - Эффективная температура на солнце - температура, которую ощущает человек, с поправкой на солнечный нагрев. Характеристика знойности погоды. Зависит от высоты солнца над горизонтом, облачности и скорости ветра. Ночью, в пасмурную погоду, а также при ветре 12 м/с и более поправка равна нулю.
P - Атмосферное давление - приведенное к уровню моря атмосферное давление.
Po - Атмосферное давление - измеренное на уровне метеостанции атмосферное давление.
Tmin - Минимальная температура - минимум температуры воздуха на высоте 2 м над землей.
Tmax - Максимальная температура - максимум температуры воздуха на высоте 2 м над землей.
R - Количество осадков - Количество выпавших осадков за период времени, мм. При наведении курсора мыши на число - период времени, за который выпало указанное количество осадков.
R24 - Количество осадков - Количество выпавших осадков за 24 часа, мм.
S - Снежный покров - Высота снежного покрова, см. При наведении курсора мыши на число - состояние снежного покрова и степень покрытия местности в баллах.